(314844) = 2006 UT183

Discovered at Catalina on 2006-10-17 by CSS.

Orbit

Orbit type: Main Belt

Note: WebGL enabled browser required.

epoch2024-03-31.0
epoch JD2460400.5
perihelion date2023-03-12.04112
perihelion JD2460015.54112
argument of perihelion (°)280.33818
ascending node (°)112.90356
inclination (°)9.64002
eccentricity0.1605817
perihelion distance (AU)2.1534032
Tisserand w.r.t. Jupiter3.4
ΔV w.r.t. Earth (km/sec)9.7
semimajor axis (AU)2.5653518
mean anomaly (°)92.34168
mean daily motion (°/day)0.23987420
aphelion distance (AU)2.977
period (years)4.11
P-vector [x]0.82356896
P-vector [y]0.56350773
P-vector [z]0.06475507
Q-vector [x]-0.54583832
Q-vector [y]0.75630110
Q-vector [z]0.36065103
absolute magnitude16.68
phase slope0.15
uncertainty0
referenceMPEC 2024-E109
observations used476
oppositions14
arc length (days)7769
first opposition used2002
last opposition used2024
residual rms (arc-secs)0.76
perturbers coarse indicatorM-v
perturbers precise indicator003Ek
first observation date used2002-11-28.0
last observation date used2024-03-06.0
computer nameMPCLINUX
JD of orbit computation2456966.745270
perihelion JD uncertainty (days)8.5805E-05
argument of perihelion uncertainty (°)5.3895E-05
ascending node uncertainty (°)5.0034E-05
inclination uncertainty (°)3.6763E-06
eccentricity uncertainty 1.1875E-07
perihelion distance uncertainty (AU)3.2233E-07
Minimum Orbit Intersection Distances (in AU)
for orbit epoch: 2460400.5, reference: E2024-EA9
Mercury1.82512
Venus1.43773
Earth1.185
Mars0.72931
Jupiter2.49249
Saturn6.57892
Uranus15.6045
Neptune27.6884

Observations

482 total observations over interval: 2002 11 28.24391 – 2024 03 06.450259
These data are available for download (format description).

Date (UT) J2000 RA J2000 Dec Magn Location Ref
2002 11 28.24391 04 28 53.56 +08 54 37.1 19.2 R 699 – Lowell Observatory-LONEOS MPS 291500
2002 11 28.26007 04 28 52.61 +08 54 39.0   699 – Lowell Observatory-LONEOS MPS 291500
2002 11 28.27619 04 28 51.57 +08 54 40.8   699 – Lowell Observatory-LONEOS MPS 291500
2002 11 28.29219 04 28 50.61 +08 54 42.6   699 – Lowell Observatory-LONEOS MPS 291500
2006 09 19.43627 03 35 38.65 +04 28 45.8 20.4 V 703 – Catalina Sky Survey MPS 190607
2006 09 19.44538 03 35 38.90 +04 28 45.1 19.0 V 703 – Catalina Sky Survey MPS 190607
2006 09 19.45452 03 35 39.08 +04 28 42.6 19.7 V 703 – Catalina Sky Survey MPS 190607
2006 09 19.46360 03 35 39.26 +04 28 41.8 20.4 V 703 – Catalina Sky Survey MPS 190607
2006 10 17.36830 03 33 32.14 +02 27 44.1 19.3 V 703 – Catalina Sky Survey MPS 184399
2006 10 17.37470 03 33 31.89 +02 27 43.3 19.7 V 703 – Catalina Sky Survey MPS 184399
2006 10 17.38110 03 33 31.68 +02 27 40.5 19.3 V 703 – Catalina Sky Survey MPS 184399
2006 10 17.38751 03 33 31.50 +02 27 38.6 18.8 V 703 – Catalina Sky Survey MPS 184399
2006 10 22.38336 03 30 32.79 +02 06 43.3 19.1 V 703 – Catalina Sky Survey MPS 184399
2006 10 22.39111 03 30 32.54 +02 06 42.9 19.0 V 703 – Catalina Sky Survey MPS 184399
2006 10 22.39887 03 30 32.14 +02 06 41.6 19.1 V 703 – Catalina Sky Survey MPS 184399
2006 10 22.40654 03 30 31.82 +02 06 38.9 19.4 V 703 – Catalina Sky Survey MPS 184399
2006 11 13.24936 03 11 52.47 +01 14 43.7 18.8 V 703 – Catalina Sky Survey MPS 188834
2006 11 13.25639 03 11 52.00 +01 14 43.0 19.2 V 703 – Catalina Sky Survey MPS 188834
2006 11 13.26331 03 11 51.64 +01 14 43.5 18.9 V 703 – Catalina Sky Survey MPS 188834
2006 11 13.27020 03 11 51.28 +01 14 43.2 19.6 V 703 – Catalina Sky Survey MPS 188834
2006 11 19.26525 03 06 18.25 +01 16 58.1 19.2 V 703 – Catalina Sky Survey MPS 188834
2006 11 19.27185 03 06 17.85 +01 16 58.2 18.8 V 703 – Catalina Sky Survey MPS 188834
2006 11 19.27848 03 06 17.46 +01 16 59.0 19.0 V 703 – Catalina Sky Survey MPS 188834
2006 11 19.28512 03 06 17.13 +01 16 59.1 19.1 V 703 – Catalina Sky Survey MPS 188834
2006 12 10.14771 02 51 37.55 +02 29 53.5 19.1 R 699 – Lowell Observatory-LONEOS MPS 192368
2006 12 10.19260 02 51 36.35 +02 30 06.9   699 – Lowell Observatory-LONEOS MPS 192368
2006 12 10.21042 02 51 35.96 +02 30 12.0   699 – Lowell Observatory-LONEOS MPS 192368
2006 12 10.22826 02 51 35.36 +02 30 19.4   699 – Lowell Observatory-LONEOS MPS 192368
2008 02 13.27144 12 14 49.02 +10 43 23.2 20.6 V G96 – Mt. Lemmon Survey MPS 291500
2008 02 13.27728 12 14 48.91 +10 43 26.2 20.6 V G96 – Mt. Lemmon Survey MPS 291500
2008 02 13.28322 12 14 48.69 +10 43 28.7 21.1 V G96 – Mt. Lemmon Survey MPS 291500
2008 02 13.28907 12 14 48.58 +10 43 31.1 20.9 V G96 – Mt. Lemmon Survey MPS 291500
2008 02 18.31631 12 12 25.38 +11 22 15.9 20.8 V G96 – Mt. Lemmon Survey MPS 291500
2008 02 18.32241 12 12 25.09 +11 22 19.3 21.4 V G96 – Mt. Lemmon Survey MPS 291500
2008 02 18.32853 12 12 24.91 +11 22 22.2 20.8 V G96 – Mt. Lemmon Survey MPS 291500
2008 02 18.33466 12 12 24.66 +11 22 25.2 21.1 V G96 – Mt. Lemmon Survey MPS 291500
2008 03 02.93027 12 03 24.17 +13 12 17.5 20.1 V A13 – Observatoire Naef, Ependes MPS 445883
2008 03 02.94898 12 03 23.34 +13 12 25.8 20.6 V A13 – Observatoire Naef, Ependes MPS 445883
2008 03 02.96762 12 03 22.46 +13 12 34.7 20.5 V A13 – Observatoire Naef, Ependes MPS 445883
2008 03 03.35873 12 03 04.17 +13 15 44.1 20.9 V G96 – Mt. Lemmon Survey MPS 291500
2008 03 03.36434 12 03 03.85 +13 15 46.5 20.9 V G96 – Mt. Lemmon Survey MPS 291500
2008 03 03.37004 12 03 03.52 +13 15 49.5 20.2 V G96 – Mt. Lemmon Survey MPS 291500
2008 03 03.37575 12 03 03.31 +13 15 52.5 20.1 V G96 – Mt. Lemmon Survey MPS 291500
2010 08 19.628671 02 12 54.940 -00 24 30.91 20.39 z F51 – Pan-STARRS 1, Haleakala MPS 365639
2010 08 19.635776 02 12 55.214 -00 24 31.92 20.42 z F51 – Pan-STARRS 1, Haleakala MPS 365639
2010 09 18.582891 02 21 50.985 -02 56 47.73 19.81 z F51 – Pan-STARRS 1, Haleakala MPS 365639
2010 09 18.588744 02 21 50.925 -02 56 50.00 19.83 z F51 – Pan-STARRS 1, Haleakala MPS 365639
2010 09 18.594715 02 21 50.846 -02 56 52.54 19.90 z F51 – Pan-STARRS 1, Haleakala MPS 365639
2010 09 18.597663 02 21 50.820 -02 56 53.64 19.93 z F51 – Pan-STARRS 1, Haleakala MPS 365639
2010 09 18.600590 02 21 50.778 -02 56 54.92 19.87 z F51 – Pan-STARRS 1, Haleakala MPS 365639
2010 09 19.585388 02 21 40.683 -03 03 38.23 20.66 g F51 – Pan-STARRS 1, Haleakala MPS 365639
2010 09 19.586837 02 21 40.651 -03 03 38.62 20.58 g F51 – Pan-STARRS 1, Haleakala MPS 365639
2010 09 19.591274 02 21 40.601 -03 03 40.50 20.58 g F51 – Pan-STARRS 1, Haleakala MPS 365639
2010 09 19.594172 02 21 40.560 -03 03 41.73 20.56 g F51 – Pan-STARRS 1, Haleakala MPS 365639
2010 09 19.595742 02 21 40.552 -03 03 42.22 20.65 g F51 – Pan-STARRS 1, Haleakala MPS 365639
2010 09 19.598462 02 21 40.502 -03 03 43.56 20.10 r F51 – Pan-STARRS 1, Haleakala MPS 365639
2010 09 19.599910 02 21 40.475 -03 03 44.19 20.11 r F51 – Pan-STARRS 1, Haleakala MPS 365639
2010 09 19.601360 02 21 40.452 -03 03 44.76 19.94 r F51 – Pan-STARRS 1, Haleakala MPS 365639
2010 09 19.602893 02 21 40.439 -03 03 45.36 20.03 r F51 – Pan-STARRS 1, Haleakala MPS 365639
2010 09 19.604336 02 21 40.420 -03 03 46.05 19.98 r F51 – Pan-STARRS 1, Haleakala MPS 365639
2010 09 19.607275 02 21 40.379 -03 03 47.21 20.00 r F51 – Pan-STARRS 1, Haleakala MPS 365639
2010 09 19.608810 02 21 40.357 -03 03 47.76 19.91 r F51 – Pan-STARRS 1, Haleakala MPS 365639
2010 09 28.608528 02 18 45.232 -04 06 50.26 19.68 r F51 – Pan-STARRS 1, Haleakala MPS 365639
2010 09 28.614420 02 18 45.064 -04 06 52.71 19.70 r F51 – Pan-STARRS 1, Haleakala MPS 365639
2010 09 28.615966 02 18 45.012 -04 06 53.37 19.77 r F51 – Pan-STARRS 1, Haleakala MPS 365639
2010 09 28.617441 02 18 44.972 -04 06 53.83 19.71 r F51 – Pan-STARRS 1, Haleakala MPS 365639
2010 10 07.31443 02 13 46.70 -05 06 30.5 19.4 V 703 – Catalina Sky Survey MPS 349499
2010 10 07.32189 02 13 46.30 -05 06 33.3 19.2 V 703 – Catalina Sky Survey MPS 349499
2010 10 07.32946 02 13 46.05 -05 06 37.7 18.9 V 703 – Catalina Sky Survey MPS 349499
2010 10 07.33693 02 13 45.69 -05 06 40.2 19.2 V 703 – Catalina Sky Survey MPS 349499
2010 10 11.31533 02 10 54.18 -05 31 39.0 19.7   704 – Lincoln Laboratory ETS, New Mexico MPS 351301
2010 10 11.32913 02 10 53.53 -05 31 43.9 19.4   704 – Lincoln Laboratory ETS, New Mexico MPS 351301
2010 10 11.34291 02 10 52.87 -05 31 48.3 19.2   704 – Lincoln Laboratory ETS, New Mexico MPS 351301
2010 10 11.35667 02 10 52.20 -05 31 52.7 19.6   704 – Lincoln Laboratory ETS, New Mexico MPS 351301
2010 10 13.37358 02 09 18.54 -05 43 40.9 19.7 V 703 – Catalina Sky Survey MPS 351301
2010 10 13.38235 02 09 18.14 -05 43 44.5 19.7 V 703 – Catalina Sky Survey MPS 351301
2010 10 13.39124 02 09 17.71 -05 43 47.5 19.5 V 703 – Catalina Sky Survey MPS 351301
2010 10 13.40006 02 09 17.24 -05 43 50.6 19.3 V 703 – Catalina Sky Survey MPS 351301
2010 10 28.28737 01 56 39.62 -06 45 08.6 18.6 V 703 – Catalina Sky Survey MPS 351301
2010 10 28.29439 01 56 39.19 -06 45 08.9 19.1 V 703 – Catalina Sky Survey MPS 351301
2010 10 28.30141 01 56 38.86 -06 45 11.4 19.1 V 703 – Catalina Sky Survey MPS 351301
2010 10 28.30828 01 56 38.50 -06 45 11.1 19.0 V 703 – Catalina Sky Survey MPS 351301
2010 11 08.24588 01 47 51.07 -06 53 01.8 19.8 V 703 – Catalina Sky Survey MPS 355428
2010 11 08.25219 01 47 50.78 -06 53 00.7 19.8 V 703 – Catalina Sky Survey MPS 355428
2010 11 08.25861 01 47 50.46 -06 53 00.7 19.5 V 703 – Catalina Sky Survey MPS 355428
2010 11 08.26495 01 47 50.17 -06 52 59.8 19.8 V 703 – Catalina Sky Survey MPS 355428
2010 11 09.20357 01 47 10.15 -06 52 01.7 19.3   704 – Lincoln Laboratory ETS, New Mexico MPS 355428
2010 11 09.21648 01 47 09.52 -06 52 01.1 19.8   704 – Lincoln Laboratory ETS, New Mexico MPS 355428
2010 11 09.22957 01 47 08.98 -06 51 59.3 19.9   704 – Lincoln Laboratory ETS, New Mexico MPS 355428
2012 01 25.45983 11 38 26.25 +12 14 28.1 21.7 V 691 – Steward Observatory, Kitt Peak-Spacewatch MPS 408815
2012 01 25.47759 11 38 25.99 +12 14 35.9 20.8 V 691 – Steward Observatory, Kitt Peak-Spacewatch MPS 408815
2012 01 25.49537 11 38 25.77 +12 14 41.4 21.0 V 691 – Steward Observatory, Kitt Peak-Spacewatch MPS 408815
